• In Uzbekistan
  • List of Countries
  • For 7 days
  • Water Temperature
  • Satellite Maps
  • Weather Map
  • Weather Widgets
  • user-avatar
    Login

    Hourly Weather Hobart

    Today, 14 December, Thursday

    Time Temperature Precipitation Wind Pressure Humidity
    00:00 +20°C° 0 mm 3 mps 737 mmHg 54%
    01:00 +20°C° 0 mm 3 mps 737 mmHg 58%
    02:00 +19°C° 0 mm 3 mps 736 mmHg 62%
    03:00 +18°C° 0 mm 2 mps 736 mmHg 66%
    04:00 +18°C° 0 mm 1 mps 735 mmHg 64%
    05:00 +18°C° 0.1 mm 2 mps 735 mmHg 66%
    06:00 +19°C° 0.1 mm 2 mps 735 mmHg 67%
    07:00 +20°C° 0.1 mm 2 mps 735 mmHg 69%
    08:00 +19°C° 0 mm 3 mps 736 mmHg 71%
    09:00 +19°C° 0 mm 4 mps 736 mmHg 72%
    10:00 +22°C° 0 mm 3 mps 736 mmHg 61%
    11:00 +22°C° 0 mm 4 mps 736 mmHg 56%
    12:00 +22°C° 0 mm 5 mps 736 mmHg 51%
    13:00 +22°C° 0 mm 6 mps 737 mmHg 46%
    14:00 +21°C° 0 mm 6 mps 737 mmHg 45%
    15:00 +21°C° 0 mm 6 mps 737 mmHg 44%
    16:00 +19°C° 0 mm 6 mps 737 mmHg 44%
    17:00 +17°C° 0 mm 6 mps 738 mmHg 52%
    18:00 +15°C° 0 mm 6 mps 739 mmHg 60%
    19:00 +14°C° 0 mm 5 mps 740 mmHg 68%
    20:00 +13°C° 0.1 mm 5 mps 741 mmHg 73%
    21:00 +12°C° 0.1 mm 5 mps 741 mmHg 78%
    22:00 +11°C° 0.1 mm 4 mps 742 mmHg 83%
    23:00 +11°C° 0 mm 4 mps 743 mmHg 85%

    Tomorrow, 15 December, Friday

    Time Temperature Precipitation Wind Pressure Humidity
    00:00 +10°C° 0 mm 3 mps 743 mmHg 87%
    01:00 +9°C° 0 mm 3 mps 743 mmHg 89%
    02:00 +8°C° 0 mm 3 mps 743 mmHg 90%
    03:00 +8°C° 0 mm 3 mps 744 mmHg 91%
    04:00 +7°C° 0 mm 2 mps 744 mmHg 92%
    05:00 +9°C° 0 mm 2 mps 744 mmHg 83%
    06:00 +12°C° 0 mm 2 mps 744 mmHg 74%
    07:00 +14°C° 0 mm 2 mps 744 mmHg 65%
    08:00 +16°C° 0 mm 2 mps 744 mmHg 57%
    09:00 +18°C° 0 mm 2 mps 744 mmHg 48%
    10:00 +20°C° 0 mm 2 mps 744 mmHg 39%
    11:00 +22°C° 0 mm 3 mps 744 mmHg 35%
    12:00 +24°C° 0 mm 3 mps 743 mmHg 31%
    13:00 +26°C° 0 mm 3 mps 743 mmHg 27%
    14:00 +26°C° 0 mm 4 mps 742 mmHg 28%
    15:00 +26°C° 0 mm 4 mps 742 mmHg 29%
    16:00 +26°C° 0 mm 4 mps 742 mmHg 30%
    17:00 +24°C° 0 mm 3 mps 742 mmHg 38%
    18:00 +21°C° 0 mm 3 mps 742 mmHg 46%
    19:00 +19°C° 0 mm 2 mps 742 mmHg 54%
    20:00 +17°C° 0 mm 2 mps 742 mmHg 64%
    21:00 +15°C° 0 mm 2 mps 742 mmHg 74%
    22:00 +13°C° 0 mm 2 mps 743 mmHg 84%
    23:00 +12°C° 0 mm 2 mps 742 mmHg 87%

    Day after tomorrow, 16 December, Saturday

    Time Temperature Precipitation Wind Pressure Humidity
    00:00 +12°C° 0 mm 2 mps 742 mmHg 89%
    01:00 +12°C° 0 mm 2 mps 742 mmHg 92%
    02:00 +11°C° 0 mm 3 mps 742 mmHg 88%
    03:00 +11°C° 0 mm 3 mps 742 mmHg 85%
    04:00 +12°C° 0 mm 3 mps 742 mmHg 81%
    05:00 +13°C° 0 mm 4 mps 742 mmHg 76%
    06:00 +15°C° 0 mm 4 mps 743 mmHg 71%
    07:00 +16°C° 0 mm 5 mps 743 mmHg 66%
    08:00 +17°C° 0 mm 5 mps 743 mmHg 64%
    09:00 +19°C° 0 mm 5 mps 744 mmHg 63%
    10:00 +19°C° 0 mm 5 mps 744 mmHg 61%
    11:00 +20°C° 0.1 mm 5 mps 744 mmHg 61%
    12:00 +20°C° 0.1 mm 4 mps 745 mmHg 61%
    13:00 +20°C° 0.1 mm 4 mps 745 mmHg 60%
    14:00 +20°C° 0 mm 4 mps 745 mmHg 59%
    15:00 +20°C° 0 mm 4 mps 745 mmHg 58%
    16:00 +20°C° 0 mm 4 mps 746 mmHg 56%
    17:00 +19°C° 0 mm 4 mps 746 mmHg 60%
    18:00 +18°C° 0 mm 3 mps 747 mmHg 64%
    19:00 +17°C° 0 mm 3 mps 747 mmHg 69%
    20:00 +14°C° 0 mm 3 mps 748 mmHg 76%
    21:00 +12°C° 0 mm 3 mps 748 mmHg 84%
    22:00 +10°C° 0 mm 2 mps 749 mmHg 91%
    23:00 +10°C° 0 mm 2 mps 749 mmHg 93%

    17 December, Sunday

    Time Temperature Precipitation Wind Pressure Humidity
    00:00 +9°C° 0 mm 2 mps 749 mmHg 94%
    01:00 +9°C° 0 mm 2 mps 749 mmHg 95%
    02:00 +8°C° 0 mm 2 mps 749 mmHg 95%
    03:00 +8°C° 0 mm 2 mps 749 mmHg 96%
    04:00 +7°C° 0 mm 2 mps 750 mmHg 96%
    05:00 +9°C° 0 mm 2 mps 750 mmHg 85%
    06:00 +12°C° 0 mm 2 mps 750 mmHg 75%
    07:00 +14°C° 0 mm 1 mps 751 mmHg 64%
    08:00 +17°C° 0 mm 2 mps 751 mmHg 55%
    09:00 +20°C° 0 mm 2 mps 751 mmHg 46%
    10:00 +23°C° 0 mm 2 mps 752 mmHg 37%
    11:00 +24°C° 0 mm 2 mps 751 mmHg 35%
    12:00 +25°C° 0 mm 3 mps 751 mmHg 33%
    13:00 +25°C° 0 mm 3 mps 751 mmHg 31%
    14:00 +24°C° 0 mm 3 mps 751 mmHg 35%
    15:00 +22°C° 0 mm 4 mps 751 mmHg 40%
    16:00 +21°C° 0 mm 4 mps 751 mmHg 44%
    17:00 +19°C° 0 mm 4 mps 751 mmHg 52%
    18:00 +17°C° 0 mm 3 mps 751 mmHg 59%
    19:00 +16°C° 0 mm 3 mps 751 mmHg 67%
    20:00 +13°C° 0 mm 3 mps 751 mmHg 73%
    21:00 +12°C° 0 mm 3 mps 751 mmHg 79%
    22:00 +11°C° 0 mm 3 mps 751 mmHg 85%
    23:00 +11°C° 0 mm 3 mps 750 mmHg 89%

    18 December, Monday

    Time Temperature Precipitation Wind Pressure Humidity
    00:00 +10°C° 0 mm 3 mps 750 mmHg 92%
    01:00 +10°C° 0 mm 3 mps 749 mmHg 96%
    02:00 +10°C° 0 mm 3 mps 748 mmHg 97%
    03:00 +10°C° 0 mm 3 mps 748 mmHg 97%
    04:00 +10°C° 0 mm 3 mps 747 mmHg 98%
    05:00 +12°C° 0 mm 3 mps 747 mmHg 87%
    06:00 +15°C° 0 mm 2 mps 747 mmHg 76%
    07:00 +18°C° 0 mm 2 mps 747 mmHg 66%
    08:00 +20°C° 0 mm 2 mps 747 mmHg 56%
    09:00 +24°C° 0 mm 1 mps 747 mmHg 46%
    10:00 +27°C° 0 mm 1 mps 747 mmHg 36%
    11:00 +28°C° 0 mm 2 mps 746 mmHg 34%
    12:00 +29°C° 0 mm 3 mps 746 mmHg 33%
    13:00 +31°C° 0 mm 3 mps 745 mmHg 31%
    14:00 +30°C° 0 mm 3 mps 745 mmHg 34%
    15:00 +29°C° 0 mm 3 mps 744 mmHg 38%
    16:00 +28°C° 0 mm 3 mps 744 mmHg 41%
    17:00 +26°C° 0 mm 3 mps 744 mmHg 51%
    18:00 +22°C° 0 mm 3 mps 744 mmHg 62%
    19:00 +20°C° 0 mm 2 mps 744 mmHg 72%
    20:00 +18°C° 0 mm 2 mps 744 mmHg 80%
    21:00 +17°C° 0 mm 2 mps 744 mmHg 87%
    22:00 +15°C° 0 mm 1 mps 744 mmHg 94%
    23:00 +15°C° 0 mm 2 mps 743 mmHg 96%

    19 December, Tuesday

    Time Temperature Precipitation Wind Pressure Humidity
    00:00 +15°C° 0 mm 2 mps 743 mmHg 97%
    01:00 +15°C° 0 mm 2 mps 742 mmHg 98%
    02:00 +15°C° 0 mm 2 mps 741 mmHg 97%
    03:00 +16°C° 0 mm 2 mps 741 mmHg 97%
    04:00 +16°C° 0 mm 3 mps 740 mmHg 96%
    05:00 +18°C° 0 mm 3 mps 740 mmHg 86%
    06:00 +20°C° 0 mm 3 mps 739 mmHg 75%
    07:00 +21°C° 0 mm 4 mps 739 mmHg 65%
    08:00 +23°C° 0 mm 4 mps 738 mmHg 59%
    09:00 +26°C° 0 mm 5 mps 737 mmHg 53%
    10:00 +27°C° 0 mm 5 mps 737 mmHg 47%
    11:00 +30°C° 0 mm 6 mps 735 mmHg 41%
    12:00 +33°C° 0 mm 7 mps 734 mmHg 35%
    13:00 +35°C° 0 mm 8 mps 733 mmHg 29%
    14:00 +34°C° 0 mm 7 mps 733 mmHg 34%
    15:00 +33°C° 0 mm 7 mps 732 mmHg 39%
    16:00 +32°C° 0 mm 7 mps 732 mmHg 43%
    17:00 +29°C° 0.2 mm 7 mps 732 mmHg 55%
    18:00 +26°C° 0.2 mm 7 mps 732 mmHg 67%
    19:00 +23°C° 0.2 mm 6 mps 732 mmHg 79%
    20:00 +21°C° 0 mm 6 mps 732 mmHg 80%
    21:00 +19°C° 0 mm 5 mps 732 mmHg 81%
    22:00 +17°C° 0 mm 4 mps 732 mmHg 81%
    23:00 +17°C° 0 mm 4 mps 732 mmHg 80%
    Show more